[[{"header":{"parameterUnit":"m.s-1","parameterCategory":1,"la1":30.2991,"la2":30.254,"lo1":-89.0895,"lo2":-89.0444,"dy":0.0017,"dx":0.0017,"nx":28,"ny":28,"refTime":"2024-04-16T21:00:00:Z","depth":0,"parameterNumber":2,"parameterNumberName":"U-component_of_WINDS"},"data":[0,0,0,0,0,0,0,0,0,0,0,0,0,0,0,0,0,0,0,0,0,0,0,0,0,0,0,0,0,0,0,0,0,0,0,0,0,0,0,0,0,0,0,0,0,0,0,0,0,0,0,0,0,0,0,0,0,0,-1.9824,-1.9825,0,-1.9909,-1.991,-1.9911,-1.993,-1.9929,-1.9929,-1.9928,-2.0017,-2.0019,-2.0022,0,0,0,0,0,0,0,0,0,0,0,0,0,-1.9681,-1.9683,-1.9824,-1.9825,-1.9826,-1.9909,-1.991,-1.9911,-1.993,-1.9929,-1.9929,-1.9928,-2.0016,-2.0019,-2.0023,0,0,0,0,0,0,0,0,0,0,0,0,0,-1.9752,-1.9684,-1.9824,-1.9846,-1.9848,-1.9909,-1.991,-1.9912,-1.993,-1.9929,-1.9928,-1.9927,-2.0014,-2.0019,-2.0023,-2.0068,0,0,-2.0036,-2.0038,0,0,0,0,0,0,0,0,-1.9748,-1.9757,-1.9841,-1.9844,-1.9847,-1.9908,-1.9892,-1.9964,-1.993,-1.9899,-1.9928,-1.9927,-1.9981,-1.9988,-2.0006,-2.0073,-2.0076,-2.0037,-2.0039,-2.0041,-2.0043,0,0,0,0,0,0,0,-1.9743,-1.9754,-1.9858,-1.9843,-1.9846,-1.9852,-1.9861,-1.9906,-1.9944,-1.9902,-1.9903,-1.9913,-1.9983,-2.0002,-2.0009,-2.0078,-2.0037,-2.0041,-2.0043,-2.0045,-2.0186,-2.0187,0,0,0,0,0,0,-1.9734,-1.9749,-1.9855,-1.986,-1.9794,-1.9855,-1.9865,-1.989,-1.9944,-1.9951,-1.9914,-1.9914,-1.9995,-2.0003,-2.0012,-2.0068,-2.0041,-2.0045,-2.0048,-2.0185,-2.0186,-2.0187,0,0,0,0,0,0,-1.9731,-1.9743,-1.9852,-1.9805,-1.982,-1.9858,-1.9886,-1.9892,-1.9911,-1.9953,-1.996,-1.9926,-1.9995,-2.0006,-2.0054,-2.0071,-2.0047,-2.0051,-2.0183,-2.0185,-2.0186,-2.0181,0,0,0,0,0,0,-1.9727,-1.9742,-1.9759,-1.9806,-1.9822,-1.9892,-1.9887,-1.9894,-1.9918,-1.9919,-1.9966,-1.9974,-1.9995,-2.0047,-2.0058,-2.0077,-2.0055,-2.0182,-2.0184,-2.0186,-2.018,-2.0182,-2.0185,0,0,0,0,0,-1.9721,-1.9755,-1.976,-1.9772,-1.9844,-1.9893,-1.9903,-1.9926,-1.992,-1.9937,-1.9964,-1.9972,-2.0068,-2.0052,-2.0065,-2.0085,-2.0181,-2.0183,-2.0186,-2.0179,-2.0182,-2.0185,0,0,0,0,0,0,-1.971,-1.9761,-1.9767,-1.9817,-1.985,-1.9896,-1.9919,-1.9928,-1.9965,-1.9964,-1.9992,-2.0002,-2.0049,-2.0072,-2.0054,-2.0132,-2.0124,-2.0129,-2.0115,-2.0118,-2.012,-2.0113,-2.0058,0,0,0,0,0,-1.9713,-1.9747,-1.9791,-1.983,-1.9847,-1.988,-1.9902,-1.9917,-1.9953,-1.9968,-1.9999,-2.0034,-2.0072,-2.0097,-2.0134,-2.0184,-2.0194,-2.0204,-2.0206,-2.0208,-2.0212,-2.024,-2.0244,-2.0195,-2.0195,-2.0195,0,0,-1.9719,-1.9752,-1.9772,-1.9829,-1.9856,-1.9892,-1.9892,-1.993,-1.9957,-1.9974,-2.0021,-2.0045,-2.0086,-2.0136,-2.0159,-2.0156,-2.0228,-2.0211,-2.0212,-2.0215,-2.0243,-2.0247,-2.0251,-2.0197,-2.0197,-2.0196,0,0,-1.975,-1.9778,-1.9814,-1.9841,-1.9883,-1.9905,-1.9914,-1.9959,-1.9975,-2.0023,-2.0036,-2.0069,-2.0135,-2.0163,-2.0186,-2.0228,-2.0237,-2.024,-2.0252,-2.0278,-2.0282,-2.0286,-2.03,-2.0305,-2.0244,-2.0244,-2.0244,0,-1.9753,-1.9807,-1.9831,-1.9868,-1.9893,-1.9909,-1.9946,-1.9972,-2.0024,-2.0041,-2.0037,-2.0119,-2.0148,-2.0204,-2.0215,-2.0233,-2.0244,-2.0234,-2.028,-2.0284,-2.0287,-2.0301,-2.0307,-2.0244,-2.0244,-2.0244,-2.0244,0,-1.9809,-1.9846,-1.987,-1.9919,-1.9946,-1.9983,-2.0013,-2.0038,-2.0051,-2.0073,-2.0122,-2.0158,-2.0203,-2.0217,-2.0231,-2.0276,-2.0272,-2.0274,-2.0267,-2.0291,-2.0305,-2.0311,-2.0244,-2.0244,-2.0244,-2.0244,0,0,-1.9833,-1.9895,-1.9904,-1.9926,-1.9974,-2.0003,-2.0041,-2.0084,-2.0105,-2.0141,-2.0173,-2.0228,-2.023,-2.0256,-2.0273,-2.0297,-2.0327,-2.0295,-2.0297,-2.0299,-2.0378,-2.0376,-2.0382,-2.0333,-2.0334,-2.0335,-2.0374,0,-1.9869,-1.9936,-1.9959,-2.0014,-2.0049,-2.0066,-2.0099,-2.0132,-2.0154,-2.0187,-2.0213,-2.0251,-2.025,-2.0266,-2.0291,-2.0318,-2.0343,-2.0316,-2.0364,-2.0365,-2.0351,-2.0389,-2.0387,-2.0422,-2.038,-2.0381,-2.0382,0,-1.9919,-1.9955,-2.0014,-2.0057,-2.0072,-2.0101,-2.0143,-2.0174,-2.0212,-2.0227,-2.0256,-2.0272,-2.0312,-2.0303,-2.036,-2.0341,-2.0362,-2.0379,-2.0381,-2.0385,-2.0374,-2.0394,-2.0434,-2.0439,-2.039,-2.039,-2.0389,0,-1.9931,-1.9993,-2.0037,-2.0055,-2.0107,-2.0127,-2.015,-2.0187,-2.0211,-2.0248,-2.0264,-2.0305,-2.0328,-2.036,-2.0386,-2.0377,-2.044,-2.0433,-2.0453,-2.0452,-2.0465,-2.0463,-2.0508,-2.048,-2.048,-2.048,-2.048,0,-1.9968,-2.0003,-2.0042,-2.0069,-2.0109,-2.0135,-2.0174,-2.0198,-2.0231,-2.0263,-2.028,-2.031,-2.0343,-2.0377,-2.0398,-2.0441,-2.0452,-2.0465,-2.047,-2.0463,-2.0461,-2.0476,-2.0474,-2.0481,-2.0481,-2.048,-2.048,0,-1.9986,-2.0014,-2.0062,-2.0107,-2.0119,-2.0147,-2.0185,-2.0212,-2.0235,-2.0275,-2.0286,-2.0323,-2.0364,-2.0393,-2.0447,-2.0461,-2.0507,-2.0512,-2.0494,-2.0496,-2.0514,-2.0511,-2.0569,-2.0578,-2.0544,-2.0545,-2.0545,0,-2.0008,-2.0035,-2.0082,-2.0105,-2.0127,-2.0162,-2.0187,-2.0215,-2.024,-2.0286,-2.0307,-2.0349,-2.0384,-2.0449,-2.0481,-2.0522,-2.0528,-2.0545,-2.0534,-2.0526,-2.0527,-2.0525,-2.0527,-2.0546,-2.0546,-2.0547,-2.0547,0,-2.0042,-2.0055,-2.0089,-2.0129,-2.0158,-2.0191,-2.0224,-2.0241,-2.0275,-2.0302,-2.0344,-2.0371,-2.0425,-2.0467,-2.0511,-2.0535,-2.0546,-2.055,-2.0557,-2.0549,-2.0537,-2.0543,-2.0497,-2.0548,-2.0548,-2.0548,-2.0548,-2.0548,-2.0063,-2.0088,-2.0125,-2.0163,-2.019,-2.0221,-2.0248,-2.0274,-2.0309,-2.0354,-2.0369,-2.0412,-2.045,-2.051,-2.0535,-2.0569,-2.0569,-2.0578,-2.0581,-2.0583,-2.0582,-2.0532,-2.0578,-2.0578,-2.0578,-2.0578,-2.0578,0,-2.0098,-2.0122,-2.0157,-2.0202,-2.0232,-2.024,-2.0277,-2.0302,-2.0339,-2.0374,-2.0407,-2.0455,-2.0496,-2.0531,-2.0573,-2.0594,-2.06,-2.0604,-2.0602,-2.0608,-2.058,-2.057,-2.0598,-2.0598,-2.0598,-2.0598,-2.0598,-2.0598,-2.012,-2.0162,-2.0178,-2.0235,-2.0259,-2.0301,-2.0321,-2.035,-2.0377,-2.0429,-2.0462,-2.0485,-2.0519,-2.0564,-2.0602,-2.0611,-2.0626,-2.0628,-2.0638,-2.0612,-2.061,-2.0607,-2.0598,-2.0631,-2.0631,-2.0663,-2.0663,-2.0663]},{"header":{"parameterUnit":"m.s-1","parameterCategory":1,"la1":30.2991,"la2":30.254,"lo1":-89.0895,"lo2":-89.0444,"dy":0.0017,"dx":0.0017,"nx":28,"ny":28,"refTime":"2024-04-16T21:00:00:Z","depth":0,"parameterNumber":3,"parameterNumberName":"V-component_of_WINDS"},"data":[0,0,0,0,0,0,0,0,0,0,0,0,0,0,0,0,0,0,0,0,0,0,0,0,0,0,0,0,0,0,0,0,0,0,0,0,0,0,0,0,0,0,0,0,0,0,0,0,0,0,0,0,0,0,0,0,0,0,4.1198,4.1199,0,4.1269,4.127,4.1271,4.1262,4.1261,4.126,4.1259,4.1329,4.1332,4.1335,0,0,0,0,0,0,0,0,0,0,0,0,0,4.1051,4.1054,4.1198,4.1199,4.12,4.1269,4.127,4.1271,4.1262,4.1261,4.126,4.1258,4.1328,4.1331,4.1335,0,0,0,0,0,0,0,0,0,0,0,0,0,4.1118,4.1055,4.1198,4.1204,4.1205,4.1269,4.127,4.1271,4.1263,4.1261,4.1259,4.1258,4.1327,4.1331,4.1335,4.1397,0,0,4.1349,4.1351,0,0,0,0,0,0,0,0,4.1114,4.1123,4.1202,4.1203,4.1205,4.1255,4.1244,4.1313,4.1263,4.1241,4.1259,4.1257,4.1306,4.1312,4.1329,4.14,4.1403,4.1349,4.1352,4.1354,4.1355,0,0,0,0,0,0,0,4.111,4.112,4.1226,4.1203,4.1205,4.1202,4.121,4.1257,4.1282,4.1243,4.1242,4.1251,4.1306,4.1324,4.133,4.1404,4.1349,4.1353,4.1356,4.1358,4.1531,4.1533,0,0,0,0,0,0,4.1104,4.1117,4.1224,4.1228,4.1155,4.1206,4.1215,4.1241,4.1281,4.1286,4.1252,4.125,4.1318,4.1325,4.1333,4.1409,4.1354,4.1358,4.136,4.1529,4.1532,4.1534,0,0,0,0,0,0,4.1101,4.1114,4.1221,4.1172,4.1186,4.1211,4.124,4.1243,4.1262,4.1289,4.1293,4.1267,4.1317,4.1326,4.1382,4.1411,4.136,4.1364,4.1527,4.153,4.1533,4.156,0,0,0,0,0,0,4.1097,4.1113,4.1137,4.1173,4.1188,4.1269,4.1242,4.1246,4.127,4.1268,4.1303,4.1308,4.1316,4.1375,4.1386,4.1416,4.1367,4.1525,4.1528,4.1532,4.1557,4.1564,4.1569,0,0,0,0,0,4.1091,4.1141,4.1138,4.1151,4.1219,4.1271,4.128,4.129,4.1272,4.1296,4.1314,4.1306,4.1406,4.1381,4.1393,4.1425,4.1523,4.1527,4.1532,4.1554,4.1562,4.1569,0,0,0,0,0,0,4.1106,4.1145,4.1143,4.1205,4.1235,4.127,4.13,4.1298,4.1332,4.1329,4.1338,4.1347,4.1403,4.1419,4.1391,4.1487,4.1462,4.1469,4.1474,4.1483,4.1489,4.1484,4.1371,0,0,0,0,0,4.1116,4.1156,4.1188,4.124,4.1255,4.1275,4.1298,4.1303,4.1334,4.1346,4.1368,4.1397,4.1435,4.146,4.1496,4.1559,4.1567,4.1587,4.1593,4.1598,4.1604,4.164,4.1649,4.1549,4.1548,4.1548,0,0,4.1138,4.1165,4.1189,4.1244,4.1267,4.1308,4.1286,4.1329,4.1359,4.1352,4.1406,4.1423,4.1456,4.1516,4.1544,4.1532,4.1634,4.1604,4.1608,4.1611,4.1645,4.1655,4.1663,4.1552,4.1551,4.1551,0,0,4.1199,4.1223,4.127,4.1294,4.1331,4.1344,4.1355,4.139,4.1402,4.1456,4.1453,4.1488,4.1553,4.1577,4.1598,4.1669,4.1664,4.168,4.1714,4.1748,4.1756,4.1763,4.1789,4.1799,4.1686,4.1686,4.1686,0,4.1222,4.1283,4.1294,4.1338,4.1362,4.136,4.1407,4.1429,4.1475,4.1492,4.1478,4.1561,4.1583,4.1648,4.1666,4.1683,4.1696,4.1676,4.1754,4.1762,4.1768,4.1793,4.1803,4.1688,4.1688,4.1688,4.1688,0,4.131,4.1352,4.1385,4.1432,4.1459,4.1505,4.1522,4.1548,4.1551,4.1566,4.1621,4.1648,4.169,4.1706,4.1708,4.1773,4.1764,4.1752,4.1727,4.178,4.1803,4.1813,4.1691,4.169,4.169,4.1689,0,0,4.1381,4.1434,4.1446,4.1467,4.1507,4.154,4.1585,4.1628,4.1651,4.1683,4.1721,4.1777,4.1766,4.179,4.1795,4.1825,4.1881,4.181,4.1811,4.1823,4.1954,4.1963,4.1974,4.1878,4.188,4.1881,4.1952,0,4.1447,4.1528,4.1539,4.1611,4.1651,4.1649,4.1688,4.1717,4.1732,4.1767,4.1783,4.1823,4.1806,4.1821,4.185,4.1868,4.1908,4.1863,4.1913,4.1915,4.1906,4.1987,4.1996,4.2061,4.1961,4.1962,4.1964,0,4.1534,4.157,4.1646,4.1682,4.1699,4.1735,4.1775,4.1809,4.1842,4.185,4.1877,4.1879,4.1926,4.1899,4.1963,4.1932,4.1953,4.1965,4.1968,4.1973,4.1943,4.1995,4.2082,4.2092,4.1978,4.1977,4.1976,0,4.158,4.1647,4.1702,4.172,4.1763,4.1788,4.1807,4.1838,4.1863,4.1898,4.1914,4.1954,4.1975,4.2005,4.2018,4.1997,4.2082,4.2055,4.209,4.209,4.2108,4.2107,4.2201,4.2121,4.2121,4.2121,4.212,0,4.1652,4.1699,4.1723,4.1757,4.1809,4.1821,4.1872,4.189,4.1918,4.1955,4.1955,4.1989,4.2003,4.2039,4.2049,4.2101,4.211,4.2119,4.2121,4.2119,4.2118,4.2133,4.2129,4.2123,4.2123,4.2122,4.2122,0,4.1712,4.173,4.179,4.1826,4.1837,4.1874,4.1905,4.1937,4.1952,4.1998,4.201,4.2033,4.2076,4.2091,4.2142,4.2149,4.221,4.2208,4.2199,4.22,4.2234,4.2231,4.2342,4.2357,4.2266,4.2267,4.2268,0,4.1758,4.1794,4.1835,4.186,4.188,4.1921,4.1947,4.196,4.1987,4.2027,4.2055,4.2098,4.2133,4.2202,4.2222,4.2262,4.2261,4.2297,4.2267,4.2265,4.2263,4.2261,4.2265,4.2303,4.2304,4.2305,4.2305,0,4.1837,4.1844,4.1882,4.1924,4.1955,4.1988,4.202,4.2041,4.2058,4.2089,4.2133,4.2161,4.2214,4.2257,4.2298,4.2317,4.2314,4.2315,4.2325,4.2324,4.2318,4.2323,4.2215,4.2312,4.2312,4.2311,4.2311,4.231,4.1892,4.1924,4.1958,4.2001,4.2027,4.2057,4.2089,4.2109,4.2147,4.2192,4.2197,4.2245,4.2277,4.2332,4.2353,4.239,4.238,4.2395,4.2399,4.2403,4.2406,4.2312,4.2398,4.2398,4.2397,4.2397,4.2397,0,4.1971,4.1994,4.2033,4.2078,4.2112,4.2107,4.2143,4.2171,4.2214,4.2244,4.2279,4.2331,4.2373,4.2397,4.2439,4.2464,4.2464,4.2475,4.2473,4.2478,4.2412,4.2399,4.2474,4.2474,4.2474,4.2474,4.2474,4.2474,4.2017,4.2072,4.2084,4.2151,4.2173,4.2221,4.2242,4.227,4.2294,4.2352,4.2387,4.2403,4.2432,4.2476,4.2514,4.252,4.2535,4.2547,4.2552,4.249,4.2482,4.2475,4.2463,4.255,4.255,4.2615,4.2616,4.2616]}]]